Simultaneous Nadir Overpasses (SNOs) Predictions

Prediction of SNOs over PacNW region [( 10.00, 139.50) to ( 22.70, 165.60)] between AQUA and NPP Satellites:

Table of predicted SNOs over PacNW region for the next 30.0 days since TLE Epoch: 2/13/2015
Index Date (AQUA) Time (AQUA) AQUA Lat,Lon Date (NPP) Time (NPP) NPP Lat,Lon Distance(km) Time Diff (sec)
1 02/15/2015 03:29:06 10.09, 150.30 02/15/2015 03:29:59 9.81, 148.87 160.10 53
2 02/23/2015 02:39:54 11.39, 162.42 02/23/2015 02:39:32 11.16, 161.23 132.66 22
3 02/25/2015 16:22:02 10.00, 140.01 02/25/2015 16:18:32 8.48, 139.49 178.64 210
4 03/03/2015 03:28:47 10.10, 150.41 03/03/2015 03:29:47 9.75, 148.85 175.40 60
5 03/11/2015 02:39:08 10.40, 162.80 03/11/2015 02:39:02 10.13, 161.44 151.36 6




NCC Satellite Simultaneous Nadir Overpasses (SNOs) Prediction Service
